FW1655 Weather Reports


Display with metric or nautical units.
time (UTC)temp
F
wind
direction
speed
MPH
gust
MPH
rain 1hr
in
rain 24hr
in
rain mn
in
humidity
%
barometer
mb
20171215214100 33 249 0.0 0.0 0.00 0.00 0.00 100 1071.1
20171215212609 29 232 0.0 0.0 0.00 0.00 0.00 79 1071.7
20171215211105 26 248 0.0 0.0 0.00 0.00 0.00 70 1072.4
20171215205617 28 218 0.0 0.0 0.00 0.00 0.00 88 1072.6
20171215204128 27 249 0.0 2.0 0.00 0.00 0.00 83 1072.9
20171215202612 28 259 0.0 3.0 0.00 0.00 0.00 70 1073.1
20171215201047 32 201 0.0 0.0 0.00 0.00 0.00 72 1073.4
20171215195603 29 269 0.0 2.0 0.00 0.00 0.00 97 1073.4
20171215194040 26 249 0.0 4.0 0.00 0.00 0.00 67 1073.8
20171215192556 26 243 0.0 4.0 0.00 0.00 0.00 68 1074.0
20171215191044 27 205 0.0 3.0 0.00 0.00 0.00 71 1074.0
20171215185536 28 167 0.0 0.0 0.00 0.00 0.00 91 1073.9
20171215184034 27 267 0.0 1.0 0.00 0.00 0.00 71 1074.0
20171215182532 25 253 0.0 4.0 0.00 0.00 0.00 68 1074.3
20171215181205 25 248 1.0 5.0 0.00 0.00 0.00 66 1074.8
20171215175531 25 226 0.0 4.0 0.00 0.00 0.00 67 1074.9
20171215174051 25 214 0.0 3.0 0.00 0.00 0.00 67 1075.2
20171215172630 25 248 0.0 4.0 0.00 0.00 0.00 67 1075.3
20171215171054 25 231 1.0 5.0 0.00 0.00 0.00 70 1075.4
20171215165533 25 139 0.0 4.0 0.00 0.00 0.00 67 1075.7
20171215164041 26 208 0.0 2.0 0.00 0.00 0.00 70 1075.8
20171215162535 24 247 0.0 4.0 0.00 0.00 0.00 69 1076.3
20171215161041 24 200 2.0 5.0 0.00 0.00 0.00 70 1076.8
20171215155532 22 250 2.0 4.0 0.00 0.00 0.00 72 1077.1
20171215154020 22 278 0.0 1.0 0.00 0.00 0.00 74 1077.3
20171215152525 22 232 0.0 4.0 0.00 0.00 0.00 74 1077.5
20171215151125 23 246 0.0 2.0 0.00 0.00 0.00 94 1077.8
20171215145542 20 249 0.0 3.0 0.00 0.00 0.00 79 1077.7
20171215144014 20 243 0.0 4.0 0.00 0.00 0.00 79 1077.6
20171215142513 22 253 0.0 1.0 0.00 0.00 0.00 97 1077.7
20171215141010 18 218 1.0 4.0 0.00 0.00 0.00 81 1077.3
20171215135509 18 233 0.0 3.0 0.00 0.00 0.00 85 1077.2
20171215134005 17 211 0.0 2.0 0.00 0.00 0.00 82 1076.8
20171215132525 16 264 0.0 4.0 0.00 0.00 0.00 83 1076.8
20171215131012 17 240 0.0 2.0 0.00 0.00 0.00 93 1076.7
20171215125458 15 228 0.0 3.0 0.00 0.00 0.00 85 1076.7
20171215124015 15 242 0.0 1.0 0.00 0.00 0.00 88 1076.3
20171215122502 0 0.0 0.0 0.00 0.00 0.00 1076.2
20171215120945 0 0.0 0.0 0.00 0.00 0.00 1076.2
20171215115458 0 0.0 0.0 0.00 0.00 0.00 1075.9
20171215113935 0 0.0 0.0 0.00 0.00 0.00 1075.9
20171215112438 0 0.0 0.0 0.00 0.00 0.00 1075.8
20171215110930 0 0.0 0.0 0.00 0.00 0.00 1075.7
20171215105438 0 0.0 0.0 0.00 0.00 0.00 1075.6
20171215103919 0 0.0 0.0 0.00 0.00 0.00 1075.8
20171215102425 0 0.0 0.0 0.00 0.00 0.00 1076.2
20171215100924 0 0.0 0.0 0.00 0.00 0.00 1076.3
20171215095444 0 0.0 0.0 0.00 0.00 0.00 1076.2
20171215093916 0 0.0 0.0 0.00 0.00 0.00 1076.2
20171215092402 0 0.0 0.0 0.00 0.00 0.00 1076.2
20171215090935 0 0.0 0.0 0.00 0.00 0.00 1076.2
20171215085457 0 0.0 0.0 0.00 0.00 0.00 1076.2
20171215083853 0 0.0 0.0 0.00 0.00 0.00 1076.2
20171215082357 0 0.0 0.0 0.00 0.00 0.00 1076.2
20171215080843 0 0.0 0.0 0.00 0.00 0.00 1076.2
20171215075336 0 0.0 0.0 0.00 0.00 0.00 1076.0
20171215073825 0 0.0 0.0 0.00 0.00 0.00 1076.0
20171215072352 0 0.0 0.0 0.00 0.00 0.00 1076.0
20171215070817 0 0.0 0.0 0.00 0.00 0.00 1075.8
20171215065324 0 0.0 0.0 0.00 0.00 0.00 1075.7
20171215063847 0 0.0 0.0 0.00 0.00 0.00 1075.1
20171215062331 0 0.0 0.0 0.00 0.00 0.00 1075.0
20171215060807 0 0.0 0.0 0.00 0.00 0.00 1074.7
20171215055310 16 245 0.0 3.0 0.00 0.00 0.00 73 1074.9
20171215053813 16 252 0.0 3.0 0.00 0.00 0.00 72 1074.9
20171215052304 17 303 0.0 3.0 0.00 0.00 0.00 71 1074.9
20171215050755 17 193 1.0 4.0 0.00 0.00 0.00 71 1074.9
20171215045249 17 271 0.0 6.0 0.00 0.00 0.00 69 1074.7
20171215043747 17 235 0.0 2.0 0.00 0.00 0.00 70 1074.7
20171215042247 17 293 0.0 5.0 0.00 0.00 0.00 69 1074.7
20171215040744 17 315 0.0 5.0 0.00 0.00 0.00 69 1074.6
20171215035246 17 298 0.0 6.0 0.00 0.00 0.00 67 1074.5
20171215033741 18 281 1.0 6.0 0.00 0.00 0.00 65 1074.5
20171215032340 18 325 0.0 5.0 0.00 0.00 0.00 81 1074.2
20171215030740 18 360 0.0 6.0 0.00 0.00 0.00 62 1074.0
20171215025244 18 323 0.0 5.0 0.00 0.00 0.00 64 1073.8
20171215023749 18 332 0.0 6.0 0.00 0.00 0.00 61 1073.8
20171215022232 18 301 1.0 7.0 0.00 0.00 0.00 60 1073.9
20171215020736 18 276 1.0 6.0 0.00 0.00 0.00 59 1073.9
20171215015236 19 314 2.0 8.0 0.00 0.00 0.00 58 1073.8
20171215013740 19 305 2.0 9.0 0.00 0.00 0.00 57 1073.6
20171215012227 19 295 1.0 5.0 0.00 0.00 0.00 57 1073.4
20171215010736 20 300 0.0 8.0 0.00 0.00 0.00 57 1073.2
20171215005218 20 297 1.0 5.0 0.00 0.00 0.00 56 1072.7
20171215003724 21 294 0.0 5.0 0.00 0.00 0.00 54 1072.5
20171215002215 21 270 0.0 4.0 0.00 0.00 0.00 54 1072.4
20171215000736 21 4 1.0 8.0 0.00 0.00 0.00 55 1071.6
20171214235213 22 290 1.0 5.0 0.00 0.00 0.00 55 1071.5
20171214233710 22 323 1.0 10.0 0.00 0.00 0.00 55 1071.4
20171214232208 23 339 1.0 7.0 0.00 0.00 0.00 56 1070.7
20171214230707 23 311 0.0 4.0 0.00 0.00 0.00 55 1070.5
20171214225219 23 300 2.0 6.0 0.00 0.00 0.00 55 1070.3
20171214223710 24 313 0.0 5.0 0.00 0.00 0.00 57 1069.8
20171214222235 24 295 0.0 4.0 0.00 0.00 0.00 56 1069.5
20171214220707 25 339 0.0 5.0 0.00 0.00 0.00 66 1069.3